This demonstration page uses our WeatherBlox Daily Observations layout. Learn more.

Left ArrowRight Arrow

Hourly Observations for June 4, 2015

Temp ( °F °C ) Dew Point ( °F °C ) Humidity (%) Winds ( mph kmh ) Pressure ( in mb ) Visibility ( mi km ) Precip ( " mm )
12:28 am 00:28 Cloudy with Mist and Fog 69 20.6 64 17.8 84 84 ENE 18 30 30.09 1019 2 3 0.00 0.00
12:59 am 00:59 Cloudy with Mist and Fog 69 20.6 64 17.8 84 84 ENE 15 24 30.09 1019 2 3 0.00 0.00
1:16 am 01:16 Cloudy with Mist and Fog 69 20.6 64 17.8 84 84 ENE 15 24 30.09 1019 1 2 0.00 0.00
1:24 am 01:24 Cloudy with Light Rain 69 20.6 64 17.8 84 84 ENE 16 26 30.09 1019 2 3 0.00 0.03
1:59 am 01:59 Cloudy with Light Rain 70 21.1 65 18.3 84 84 ENE 14 22 30.08 1019 1 2 0.00 0.03
2:11 am 02:11 Cloudy with Mist and Fog 70 21.1 65 18.3 84 84 ENE 15 24 30.09 1019 2 3 0.00 0.03
2:50 am 02:50 Cloudy with Mist and Fog 70 21.1 65 18.3 84 84 ENE 18 30 30.09 1019 1 2 0.00 0.03
2:59 am 02:59 Cloudy with Light Rain 70 21.1 65 18.3 84 84 ENE 16 26 30.08 1019 1 2 0.00 0.03
3:37 am 03:37 Cloudy with Light Rain 70 21.1 65 18.3 84 84 ENE 15 24 30.09 1019 3 5 0.00 0.03
3:59 am 03:59 Cloudy with Light Rain 70 21.1 65 18.3 84 84 E 17 28 30.08 1019 2 3 0.02 0.51
4:19 am 04:19 Cloudy with Heavy Rain 70 21.1 65 18.3 84 84 ENE 18 30 30.09 1019 2 3 0.00 0.00
4:29 am 04:29 Cloudy with Light Rain 70 21.1 65 18.3 84 84 ENE 17 28 30.06 1018 5 8 0.00 0.00
4:59 am 04:59 Cloudy with Light Rain 70 21.1 65 18.3 84 84 ENE 15 24 30.07 1018 4 6 0.09 2.29
5:59 am 05:59 Cloudy with Light Rain 70 21.1 65 18.3 84 84 E 14 22 30.08 1019 5 8 0.05 1.27
6:18 am 06:18 Cloudy with Heavy Rain 70 21.1 65 18.3 84 84 E 15 24 30.09 1019 2 3 0.00 0.00
6:23 am 06:23 Cloudy with Heavy Rain 70 21.1 65 18.3 84 84 ENE 17 28 30.09 1019 2 2 0.00 0.00
6:31 am 06:31 Cloudy with Light Rain 71 21.7 65 18.3 81 81 ENE 16 26 30.09 1019 2 3 0.00 0.00
6:34 am 06:34 Cloudy with Light Rain 71 21.7 65 18.3 81 81 E 16 26 30.09 1019 3 5 0.00 0.00
6:38 am 06:38 Cloudy with Heavy Rain 71 21.7 65 18.3 81 81 ENE 13 20 30.09 1019 3 4 0.00 0.00
6:42 am 06:42 Cloudy with Heavy Rain 71 21.7 65 18.3 81 81 ENE 15 24 30.09 1019 2 2 0.00 0.00
6:47 am 06:47 Cloudy with Heavy Rain 71 21.7 65 18.3 81 81 NE 16 26 30.09 1019 2 3 0.00 0.00
6:53 am 06:53 Cloudy with Rain 70 21 64 18 83 83 NE 13 20 30.09 1019 3 5 0.00 0.00
6:59 am 06:59 Cloudy with Rain 70 21.1 65 18.3 84 84 ENE 16 26 30.09 1019 3 4 0.39 9.91
7:09 am 07:09 Cloudy with Rain 71 21.7 65 18.3 81 81 NE 16 26 30.09 1019 3 5 0.00 0.00
7:21 am 07:21 Cloudy with Rain 71 21.7 65 18.3 81 81 NE 13 20 30.09 1019 3 4 0.00 0.00
7:27 am 07:27 Cloudy with Rain 71 21.7 65 18.3 81 81 NE 13 20 30.09 1019 3 4 0.00 0.00
7:39 am 07:39 Cloudy with Rain 71 21.7 65 18.3 81 81 E 7 11 30.09 1019 2 3 0.00 0.00
7:50 am 07:50 Cloudy with Rain 71 21.7 65 18.3 81 81 E 7 11 30.09 1019 2 3 0.00 0.00
7:59 am 07:59 Cloudy with Light Rain 71 21.7 65 18.3 81 81 E 7 11 30.09 1019 4 6 0.13 3.30
8:08 am 08:08 Cloudy with Rain 71 21.7 66 18.9 84 84 E 10 17 30.09 1019 1 1 0.00 0.00
8:27 am 08:27 Cloudy with Rain 71 21.7 66 18.9 84 84 E 8 13 30.09 1019 1 2 0.00 0.00
8:36 am 08:36 Cloudy with Light Rain 71 21.7 66 18.9 84 84 E 6 9 30.09 1019 1 2 0.00 0.00
8:59 am 08:59 Mostly Cloudy with Light Rain 71 21.7 66 18.9 84 84 ENE 12 19 30.09 1019 1 2 0.05 1.27
9:59 am 09:59 Cloudy with Light Rain 71 21.7 66 18.9 84 84 ENE 12 19 30.09 1019 1 2 0.05 1.27
10:02 am 10:02 Cloudy with Light Rain 71 21.7 66 18.9 84 84 ENE 13 20 30.09 1019 2 3 0.00 0.00
10:59 am 10:59 Cloudy with Mist and Fog 71 21.7 66 18.9 84 84 ENE 12 19 30.09 1019 2 3 0.03 0.76
11:36 am 11:36 Cloudy with Mist and Fog 71 21.7 66 18.9 84 84 ENE 10 17 30.09 1019 1 2 0.00 0.00
11:59 am 11:59 Cloudy with Light Rain 70 21.1 67 19.4 90 90 ENE 13 20 30.09 1019 1 2 0.00 0.03
12:42 pm 12:42 Cloudy with Mist and Fog 71 21.7 67 19.4 87 87 ENE 10 17 30.09 1019 3 4 0.00 0.00
12:59 pm 12:59 Cloudy with Mist and Fog 71 21.7 67 19.4 87 87 E 10 17 30.09 1019 3 4 0.01 0.25
1:59 pm 13:59 Cloudy with Mist and Fog 71 21.7 67 19.4 87 87 ENE 10 17 30.08 1019 3 4 0.00 0.00
2:59 pm 14:59 Cloudy with Mist and Fog 70 21.1 68 20 93 93 ENE 9 15 30.09 1019 3 4 0.00 0.00
3:59 pm 15:59 Cloudy with Light Rain 70 21.1 68 20 93 93 ENE 9 15 30.08 1019 2 3 0.03 0.76
4:59 pm 16:59 Cloudy with Light Rain 69 20.6 68 20 96 96 E 10 17 30.07 1018 2 3 0.02 0.51
5:59 pm 17:59 Cloudy with Mist and Fog 68 20 67 19.4 96 96 ENE 13 20 30.07 1018 2 3 0.01 0.25
6:59 pm 18:59 Cloudy with Mist and Fog 67 19.4 65 18.3 93 93 ENE 12 19 30.07 1018 2 3 0.00 0.00
7:59 pm 19:59 Cloudy with Mist and Fog 66 18.9 64 17.8 93 93 ENE 10 17 30.08 1019 2 3 0.00 0.00
8:59 pm 20:59 Cloudy with Mist and Fog 66 18.9 63 17.2 90 90 ENE 10 17 30.08 1019 2 3 0.00 0.00
9:59 pm 21:59 Cloudy with Mist and Fog 65 18.3 63 17.2 93 93 ENE 10 17 30.09 1019 3 5 0.00 0.00
10:14 pm 22:14 Cloudy with Mist and Fog 65 18.3 63 17.2 93 93 ENE 14 22 30.09 1019 3 4 0.00 0.00
10:59 pm 22:59 Cloudy with Mist and Fog 65 18.3 63 17.2 93 93 ENE 12 19 30.09 1019 5 8 0.00 0.00
11:59 pm 23:59 Cloudy with Light Rain 65 18.3 63 17.2 93 93 ENE 13 20 30.08 1019 5 8 0.00 0.03

Powered by AerisWeather